SHIJIAN-20 (SJ-20)

Last updated on Sun Apr 12 2026 00:02:55 GMT+0000 (Coordinated Universal Time)

1 44910U 19097A 26101.53065743 .00000133 00000+0 00000+0 0 9992 2 44910 4.7466 75.8593 0003384 20.0051 345.2725 1.00090211 23030
UTC large
Height (km)
Speed (km/s)
/
Latitude / Longitude
Inclination (degrees)
Orbital Period (minutes)
Azimuth
Elevation
Range (km)
Doppler Factor

Next 0 passes for location: London (51.5072 / 0.1276)

Sorry there are no passes over London.
SHIJIAN-20 (SJ-20)